Find OneWeb SL0121

NORAD ID: 47283 Int'l Des: 2020-100 Owner: ONEWEB Country: UK Constellation: oneweb operational
LEOCIRCULARPOLARONEWEB_TYPE

Live Position

Loading 3D Globe...

About OneWeb SL0121

Description loading...

Upcoming Passes

Passes for default location (London). Set your location on the main map for personalized predictions.

Altitude History

Loading altitude history...

Two-Line Element Set

1 47283U 20100AB 26107.15948565 .00000497 00000-0 13452-2 0 9993
2 47283 87.9009 2.7798 0001643 81.1709 278.9606 13.12442803256562
Epoch: Apr 17, 2026 • Age: 13 hours

Current Status

Altitude 1237.5 km
Velocity 7.23 km/s
Sub-Earth Point -58.99°S, 91.65°W
Launch Date Dec 18, 2020
Age 5.3 years
Type internet

Technical Details

Classification Payload
Mass 148.00 kg
Dry Mass 140.00 kg
Total Mass 148.00 kg
Length 1.30 m
Diameter 1.00 m
Span 5.00 m
Shape Trapezoid+2 pan
Manufacturer ONEWUS
Bus Type ARROW
Phase Status In Orbit
Owner/State ONEWEB/UK

Most Searched